NSE8768 SKCL-SKAS

Flight info

Callsign NSE8768
Flight time 0h 52m
Altitude 17000
Route MONVI1A MONVI Z026 ESARO Z027 TISLU TISLU1B
Aircraft AT76/M-SDFGIRY/S

Departure

Time 2026-04-22 01:12
Airport Alfonso Bonilla Aragon International Airport (SKCL)

Arrival

Time 2026-04-22 02:04
Airport Tres De Mayo Airport (SKAS)
Time Latitude Longitude Altitude Speed Heading
2026-04-22 00:56 3.53774 -76.38866 3159 ft 0 kts 171°
2026-04-22 01:05 3.53777 -76.38866 3159 ft 3 kts 171°
2026-04-22 01:05 3.53804 -76.38870 3159 ft 4 kts 165°
2026-04-22 01:05 3.53815 -76.38874 3159 ft 0 kts 127°
2026-04-22 01:08 3.53814 -76.38864 3159 ft 2 kts 79°
2026-04-22 01:08 3.53825 -76.38856 3159 ft 3 kts 32°
2026-04-22 01:08 3.53852 -76.38841 3159 ft 6 kts 34°
2026-04-22 01:08 3.53889 -76.38816 3159 ft 8 kts 33°
2026-04-22 01:09 3.53924 -76.38774 3159 ft 9 kts 88°
2026-04-22 01:09 3.53910 -76.38710 3159 ft 10 kts 101°
2026-04-22 01:09 3.53878 -76.38642 3159 ft 12 kts 137°
2026-04-22 01:09 3.53809 -76.38590 3159 ft 13 kts 144°
2026-04-22 01:10 3.53732 -76.38536 3159 ft 14 kts 145°
2026-04-22 01:10 3.53650 -76.38479 3159 ft 14 kts 150°
2026-04-22 01:10 3.53561 -76.38456 3158 ft 13 kts 152°
2026-04-22 01:10 3.53532 -76.38372 3157 ft 13 kts 99°
2026-04-22 01:11 3.53575 -76.38296 3158 ft 26 kts 18°
2026-04-22 01:11 3.53940 -76.38233 3163 ft 79 kts
2026-04-22 01:11 3.54649 -76.38111 3161 ft 125 kts
2026-04-22 01:11 3.55579 -76.37980 3389 ft 140 kts
2026-04-22 01:12 3.56573 -76.37814 3820 ft 151 kts 11°
2026-04-22 01:12 3.57623 -76.37617 4217 ft 154 kts 11°
2026-04-22 01:12 3.58771 -76.37441 4262 ft 184 kts
2026-04-22 01:12 3.60120 -76.37150 4357 ft 208 kts 14°
2026-04-22 01:13 3.61473 -76.36810 5033 ft 194 kts 15°
2026-04-22 01:13 3.62741 -76.36495 5929 ft 184 kts 14°
2026-04-22 01:13 3.63997 -76.36200 6362 ft 185 kts 14°
2026-04-22 01:13 3.65102 -76.35588 6712 ft 187 kts 52°
2026-04-22 01:14 3.65434 -76.34350 7095 ft 193 kts 97°
2026-04-22 01:14 3.64977 -76.33076 7366 ft 196 kts 111°
2026-04-22 01:14 3.64104 -76.32018 7584 ft 202 kts 142°
2026-04-22 01:14 3.62905 -76.31260 7829 ft 205 kts 146°
2026-04-22 01:15 3.61671 -76.30536 8167 ft 205 kts 147°
2026-04-22 01:15 3.60366 -76.29957 8365 ft 210 kts 172°
2026-04-22 01:15 3.58919 -76.30156 8610 ft 212 kts 195°
2026-04-22 01:15 3.57518 -76.30622 8865 ft 214 kts 205°
2026-04-22 01:16 3.56104 -76.31034 9046 ft 214 kts 175°
2026-04-22 01:16 3.54777 -76.30506 9302 ft 210 kts 134°
2026-04-22 01:16 3.53945 -76.29348 9516 ft 205 kts 124°
2026-04-22 01:16 3.52734 -76.28587 9697 ft 214 kts 169°
2026-04-22 01:17 3.51238 -76.28648 9860 ft 219 kts 184°
2026-04-22 01:17 3.49727 -76.28941 9955 ft 225 kts 208°
2026-04-22 01:17 3.48460 -76.29864 10087 ft 227 kts 221°
2026-04-22 01:17 3.47251 -76.30907 10272 ft 229 kts 225°
2026-04-22 01:18 3.46271 -76.32160 10446 ft 229 kts 240°
2026-04-22 01:18 3.45483 -76.33558 10611 ft 231 kts 244°
2026-04-22 01:18 3.44734 -76.34982 10819 ft 231 kts 239°
2026-04-22 01:18 3.43719 -76.36231 10973 ft 232 kts 229°
2026-04-22 01:19 3.42574 -76.37378 11177 ft 234 kts 214°
2026-04-22 01:19 3.41068 -76.37833 11292 ft 236 kts 181°
2026-04-22 01:19 3.39435 -76.37873 11479 ft 235 kts 184°
2026-04-22 01:19 3.37797 -76.37915 11674 ft 236 kts 179°
2026-04-22 01:20 3.36161 -76.37809 11840 ft 236 kts 174°
2026-04-22 01:20 3.34533 -76.37520 12058 ft 239 kts 166°
2026-04-22 01:20 3.32963 -76.36991 12248 ft 238 kts 158°
2026-04-22 01:20 3.31475 -76.36279 12437 ft 235 kts 153°
2026-04-22 01:21 3.30034 -76.35496 12616 ft 235 kts 151°
2026-04-22 01:21 3.28617 -76.34710 12792 ft 237 kts 151°
2026-04-22 01:21 3.27175 -76.33918 12960 ft 235 kts 152°
2026-04-22 01:21 3.25730 -76.33148 13098 ft 235 kts 153°
2026-04-22 01:22 3.24275 -76.32392 13249 ft 236 kts 153°
2026-04-22 01:22 3.22807 -76.31634 13411 ft 237 kts 153°
2026-04-22 01:22 3.21333 -76.30876 13581 ft 238 kts 153°
2026-04-22 01:22 3.19869 -76.30120 13745 ft 236 kts 153°
2026-04-22 01:23 3.18405 -76.29370 13874 ft 236 kts 154°
2026-04-22 01:23 3.16939 -76.28621 14035 ft 240 kts 154°
2026-04-22 01:23 3.15461 -76.27858 14212 ft 238 kts 153°
2026-04-22 01:23 3.13986 -76.27094 14376 ft 239 kts 153°
2026-04-22 01:24 3.12518 -76.26337 14530 ft 236 kts 153°
2026-04-22 01:24 3.11055 -76.25577 14715 ft 237 kts 153°
2026-04-22 01:24 3.09585 -76.24810 14918 ft 238 kts 153°
2026-04-22 01:24 3.08611 -76.24303 15018 ft 239 kts 153°
2026-04-22 01:25 3.06641 -76.23275 15244 ft 238 kts 153°
2026-04-22 01:25 3.05670 -76.22765 15335 ft 238 kts 153°
2026-04-22 01:25 3.04205 -76.21993 15490 ft 238 kts 153°
2026-04-22 01:25 3.02740 -76.21220 15664 ft 237 kts 153°
2026-04-22 01:26 3.01284 -76.20448 15821 ft 236 kts 153°
2026-04-22 01:26 2.99833 -76.19684 15952 ft 236 kts 154°
2026-04-22 01:26 2.98371 -76.18919 16069 ft 236 kts 154°
2026-04-22 01:26 2.96918 -76.18165 16184 ft 234 kts 154°
2026-04-22 01:27 2.95467 -76.17421 16297 ft 235 kts 154°
2026-04-22 01:27 2.94034 -76.16676 16399 ft 236 kts 154°
2026-04-22 01:27 2.92577 -76.15925 16504 ft 235 kts 153°
2026-04-22 01:27 2.91123 -76.15168 16642 ft 235 kts 154°
2026-04-22 01:28 2.89671 -76.14426 16768 ft 234 kts 154°
2026-04-22 01:28 2.88223 -76.13691 16920 ft 233 kts 154°
2026-04-22 01:28 2.86783 -76.12960 16993 ft 232 kts 157°
2026-04-22 01:28 2.85213 -76.12686 17025 ft 231 kts 182°
2026-04-22 01:29 2.83586 -76.12778 17021 ft 237 kts 185°
2026-04-22 01:29 2.81930 -76.12924 17023 ft 241 kts 186°
2026-04-22 01:29 2.80244 -76.13052 17020 ft 244 kts 185°
2026-04-22 01:29 2.78535 -76.13139 17023 ft 247 kts 184°
2026-04-22 01:30 2.76815 -76.13205 17025 ft 248 kts 184°
2026-04-22 01:30 2.75106 -76.13270 17025 ft 249 kts 184°
2026-04-22 01:30 2.73344 -76.13337 17032 ft 250 kts 184°
2026-04-22 01:30 2.71623 -76.13403 17034 ft 251 kts 184°
2026-04-22 01:31 2.69874 -76.13461 17038 ft 252 kts 184°
2026-04-22 01:31 2.68117 -76.13514 17041 ft 252 kts 183°
2026-04-22 01:31 2.66364 -76.13570 17037 ft 251 kts 184°
2026-04-22 01:31 2.64617 -76.13639 17053 ft 252 kts 183°
2026-04-22 01:32 2.62870 -76.13705 17044 ft 251 kts 184°
2026-04-22 01:32 2.61117 -76.13770 17044 ft 253 kts 184°
2026-04-22 01:32 2.59357 -76.13838 17057 ft 254 kts 184°
2026-04-22 01:32 2.57597 -76.13905 17042 ft 253 kts 184°
2026-04-22 01:33 2.55837 -76.13970 17053 ft 253 kts 184°
2026-04-22 01:33 2.54073 -76.14038 17052 ft 255 kts 184°
2026-04-22 01:33 2.52302 -76.14104 17056 ft 253 kts 184°
2026-04-22 01:33 2.50538 -76.14169 17056 ft 253 kts 184°
2026-04-22 01:34 2.48795 -76.14237 17058 ft 254 kts 184°
2026-04-22 01:34 2.47030 -76.14306 17059 ft 254 kts 184°
2026-04-22 01:34 2.45259 -76.14372 17063 ft 255 kts 184°
2026-04-22 01:34 2.43487 -76.14439 17072 ft 257 kts 184°
2026-04-22 01:35 2.41702 -76.14510 17069 ft 256 kts 184°
2026-04-22 01:35 2.39916 -76.14577 17070 ft 256 kts 184°
2026-04-22 01:35 2.38129 -76.14642 17070 ft 257 kts 184°
2026-04-22 01:35 2.36341 -76.14708 17074 ft 258 kts 184°
2026-04-22 01:36 2.34551 -76.14772 17068 ft 257 kts 184°
2026-04-22 01:36 2.32765 -76.14842 17073 ft 256 kts 184°
2026-04-22 01:36 2.30986 -76.14914 17071 ft 256 kts 184°
2026-04-22 01:36 2.29209 -76.14983 17076 ft 254 kts 184°
2026-04-22 01:37 2.27465 -76.15047 17078 ft 255 kts 184°
2026-04-22 01:37 2.25677 -76.15114 17066 ft 258 kts 184°
2026-04-22 01:37 2.23879 -76.15182 17066 ft 258 kts 184°
2026-04-22 01:37 2.22090 -76.15257 17068 ft 258 kts 184°
2026-04-22 01:38 2.20298 -76.15323 17058 ft 257 kts 184°
2026-04-22 01:38 2.18516 -76.15386 17054 ft 256 kts 184°
2026-04-22 01:38 2.16731 -76.15449 17056 ft 257 kts 184°
2026-04-22 01:38 2.14948 -76.15519 17054 ft 256 kts 184°
2026-04-22 01:39 2.13159 -76.15591 17053 ft 257 kts 184°
2026-04-22 01:39 2.11372 -76.15656 17046 ft 259 kts 184°
2026-04-22 01:39 2.09538 -76.15737 17049 ft 265 kts 185°
2026-04-22 01:39 2.07713 -76.15834 17048 ft 265 kts 184°
2026-04-22 01:40 2.05871 -76.15894 17049 ft 266 kts 184°
2026-04-22 01:40 2.04027 -76.15953 17037 ft 262 kts 183°
2026-04-22 01:40 2.02210 -76.16005 17037 ft 260 kts 184°
2026-04-22 01:40 2.00379 -76.16090 17027 ft 261 kts 185°
2026-04-22 01:41 1.98576 -76.16154 17026 ft 256 kts 183°
2026-04-22 01:41 1.96779 -76.16203 17027 ft 257 kts 183°
2026-04-22 01:41 1.94993 -76.16250 17027 ft 256 kts 184°
2026-04-22 01:41 1.93232 -76.16329 17022 ft 257 kts 185°
2026-04-22 01:42 1.91443 -76.16416 17020 ft 257 kts 185°
2026-04-22 01:42 1.89655 -76.16503 17026 ft 257 kts 184°
2026-04-22 01:42 1.87873 -76.16575 17016 ft 256 kts 184°
2026-04-22 01:42 1.86103 -76.16635 17011 ft 251 kts 182°
2026-04-22 01:43 1.84363 -76.16670 16995 ft 251 kts 184°
2026-04-22 01:43 1.82619 -76.16726 17014 ft 249 kts 184°
2026-04-22 01:43 1.80876 -76.16787 17012 ft 252 kts 184°
2026-04-22 01:43 1.79124 -76.16852 17004 ft 252 kts 184°
2026-04-22 01:44 1.77358 -76.16924 17002 ft 253 kts 184°
2026-04-22 01:44 1.75594 -76.16990 17004 ft 254 kts 184°
2026-04-22 01:44 1.73847 -76.17053 17004 ft 254 kts 184°
2026-04-22 01:44 1.72078 -76.17121 16998 ft 255 kts 184°
2026-04-22 01:45 1.70303 -76.17187 16993 ft 255 kts 184°
2026-04-22 01:45 1.68525 -76.17255 16985 ft 255 kts 184°
2026-04-22 01:45 1.66754 -76.17323 16990 ft 255 kts 184°
2026-04-22 01:45 1.64977 -76.17389 16989 ft 255 kts 184°
2026-04-22 01:46 1.63204 -76.17457 16992 ft 255 kts 184°
2026-04-22 01:46 1.61425 -76.17524 16991 ft 256 kts 184°
2026-04-22 01:46 1.59643 -76.17591 16988 ft 256 kts 184°
2026-04-22 01:46 1.57887 -76.17659 16995 ft 256 kts 184°
2026-04-22 01:47 1.56099 -76.17728 16989 ft 257 kts 184°
2026-04-22 01:47 1.54312 -76.17793 16988 ft 256 kts 184°
2026-04-22 01:47 1.52525 -76.17861 16977 ft 257 kts 184°
2026-04-22 01:47 1.50735 -76.17928 16954 ft 258 kts 184°
2026-04-22 01:48 1.48942 -76.17997 16941 ft 257 kts 184°
2026-04-22 01:48 1.47144 -76.18066 16936 ft 259 kts 184°
2026-04-22 01:48 1.45339 -76.18134 16919 ft 259 kts 184°
2026-04-22 01:48 1.43547 -76.18201 16928 ft 257 kts 184°
2026-04-22 01:49 1.41762 -76.18276 16927 ft 257 kts 186°
2026-04-22 01:49 1.39986 -76.18379 16928 ft 261 kts 184°
2026-04-22 01:49 1.38145 -76.18446 16924 ft 261 kts 185°
2026-04-22 01:49 1.36328 -76.18534 16778 ft 265 kts 185°
2026-04-22 01:50 1.34477 -76.18601 16675 ft 266 kts 184°
2026-04-22 01:50 1.32627 -76.18654 16562 ft 267 kts 183°
2026-04-22 01:50 1.30769 -76.18690 16475 ft 266 kts 183°
2026-04-22 01:50 1.28911 -76.18754 16427 ft 267 kts 184°
2026-04-22 01:51 1.27061 -76.18822 16390 ft 266 kts 184°
2026-04-22 01:51 1.25226 -76.18918 16273 ft 264 kts 185°
2026-04-22 01:51 1.23386 -76.19009 16162 ft 265 kts 184°
2026-04-22 01:51 1.21562 -76.19080 16114 ft 265 kts 184°
2026-04-22 01:52 1.19714 -76.19157 16070 ft 266 kts 184°
2026-04-22 01:52 1.17868 -76.19224 16032 ft 265 kts 184°
2026-04-22 01:52 1.16030 -76.19295 15995 ft 264 kts 184°
2026-04-22 01:52 1.14193 -76.19377 15952 ft 262 kts 186°
2026-04-22 01:53 1.12477 -76.19926 15854 ft 261 kts 210°
2026-04-22 01:53 1.10940 -76.20891 15828 ft 260 kts 216°
2026-04-22 01:53 1.09465 -76.21939 15820 ft 260 kts 217°
2026-04-22 01:53 1.07993 -76.22985 15799 ft 260 kts 216°
2026-04-22 01:54 1.06486 -76.24002 15651 ft 266 kts 215°
2026-04-22 01:54 1.04944 -76.25012 15320 ft 269 kts 214°
2026-04-22 01:54 1.03376 -76.26037 14957 ft 270 kts 214°
2026-04-22 01:54 1.01792 -76.27073 14603 ft 271 kts 214°
2026-04-22 01:55 1.00212 -76.28104 14251 ft 273 kts 214°
2026-04-22 01:55 0.98618 -76.29148 13893 ft 273 kts 214°
2026-04-22 01:55 0.97024 -76.30191 13537 ft 274 kts 214°
2026-04-22 01:55 0.95429 -76.31234 13180 ft 275 kts 214°
2026-04-22 01:56 0.93835 -76.32278 12822 ft 274 kts 214°
2026-04-22 01:56 0.92237 -76.33325 12465 ft 274 kts 214°
2026-04-22 01:56 0.90635 -76.34370 12106 ft 276 kts 214°
2026-04-22 01:56 0.89032 -76.35420 11747 ft 277 kts 214°
2026-04-22 01:57 0.87421 -76.36469 11386 ft 276 kts 214°
2026-04-22 01:57 0.85813 -76.37524 11030 ft 276 kts 214°
2026-04-22 01:57 0.84224 -76.38562 10620 ft 278 kts 214°
2026-04-22 01:57 0.82602 -76.39625 10193 ft 278 kts 213°
2026-04-22 01:58 0.80967 -76.40696 9765 ft 278 kts 214°
2026-04-22 01:58 0.79375 -76.41747 9347 ft 276 kts 213°
2026-04-22 01:58 0.77740 -76.42809 8927 ft 279 kts 213°
2026-04-22 01:58 0.76119 -76.43836 8507 ft 275 kts 212°
2026-04-22 01:59 0.74516 -76.44858 8080 ft 271 kts 213°
2026-04-22 01:59 0.72964 -76.45908 7736 ft 262 kts 219°
2026-04-22 01:59 0.71934 -76.47360 7201 ft 257 kts 253°
2026-04-22 01:59 0.71594 -76.49103 6676 ft 255 kts 258°
2026-04-22 02:00 0.70724 -76.50647 6144 ft 261 kts 225°
2026-04-22 02:00 0.69256 -76.51488 5557 ft 251 kts 193°
2026-04-22 02:00 0.67538 -76.51428 4988 ft 233 kts 158°
2026-04-22 02:00 0.66130 -76.50772 4488 ft 218 kts 151°
2026-04-22 02:01 0.64775 -76.50116 4012 ft 213 kts 152°
2026-04-22 02:01 0.63465 -76.49480 3516 ft 207 kts 152°
2026-04-22 02:01 0.62194 -76.48864 3052 ft 198 kts 153°
2026-04-22 02:01 0.60940 -76.48416 2732 ft 186 kts 175°
2026-04-22 02:02 0.59743 -76.48551 2616 ft 169 kts 187°
2026-04-22 02:02 0.58609 -76.48752 2432 ft 162 kts 189°
2026-04-22 02:02 0.57520 -76.48949 2196 ft 155 kts 190°
2026-04-22 02:02 0.56534 -76.49124 1981 ft 137 kts 189°
2026-04-22 02:03 0.55636 -76.49269 1783 ft 124 kts 188°
2026-04-22 02:03 0.54804 -76.49395 1597 ft 120 kts 189°
2026-04-22 02:03 0.53980 -76.49527 1551 ft 122 kts 187°
2026-04-22 02:03 0.53101 -76.49675 1376 ft 134 kts 191°
2026-04-22 02:04 0.51197 -76.49992 861 ft 134 kts 188°
2026-04-22 02:04 0.50429 -76.50107 828 ft 74 kts 188°
2026-04-22 02:04 0.50185 -76.50139 828 ft 14 kts 187°
2026-04-22 02:05 0.50167 -76.50157 828 ft 4 kts 264°
2026-04-22 02:05 0.50171 -76.50172 828 ft 3 kts 284°
2026-04-22 02:05 0.50187 -76.50191 829 ft 5 kts 342°
2026-04-22 02:05 0.50230 -76.50189 828 ft 7 kts
2026-04-22 02:06 0.50262 -76.50184 828 ft 2 kts
2026-04-22 02:06 0.50264 -76.50183 828 ft 0 kts